Weather History for KTHV - February, 2014

Change the Weather History Date:

Friday, February 7, 2014

  Actual Average Record
Temperature  
Mean Temperature 21 °F -  
Max Temperature 32 °F 0 °F 60 °F (2009)
Min Temperature 10 °F - 7 °F (2007)
Degree Days  
Heating Degree Days 44    
Moisture  
Dew Point 13 °F    
Average Humidity 70    
Maximum Humidity 92    
Minimum Humidity 50    
Precipitation  
Precipitation 0.00 in - - ()
Sea Level Pressure  
Sea Level Pressure 30.32 in    
Wind  
Wind Speed 2 mph (West)    
Max Wind Speed 9 mph    
Max Gust Speed -    
Visibility 9 miles    
Events      
Averages and records for this station are not official NWS values.
T = Trace of Precipitation, MM = Missing Value Source: NWS Daily Summary

Daily Weather History Graph

Daily Weather History Graph

Search for Another Location

Airport or City:

Trip Planner

Search our weather history database for the weather conditions in past years. The results will help you decide how hot, cold, wet, or windy it might be!

Date:

Astronomy

Feb. 07, 2014 Rise Set
Actual Time 7:09 AM EST 5:34 PM EST
Civil Twilight 6:41 AM EST 6:02 PM EST
Nautical Twilight 6:09 AM EST 6:34 PM EST
Astronomical Twilight 5:37 AM EST 7:05 PM EST
Moon 11:44 AM EST (2/7) 1:23 AM EST (2/7)
Length of Visible Light 11h 20m
Length of Day
10h 24m
First Quarter, 59% of the Moon is Illuminated
Feb 7
First Quarter
Feb 14
Full
Feb 22
Last Quarter
Mar 1
New
Mar 8
First Quarter

Hourly Weather History & Observations

Time (EST) Temp. Windchill Dew Point Humidity Pressure Visibility Wind Dir Wind Speed Gust Speed Precip Events Conditions
12:53 AM 17.1 °F - 12.0 °F 81% 30.29 in 9.0 mi Calm Calm - N/A   Clear
1:53 AM 17.1 °F - 12.0 °F 81% 30.28 in 10.0 mi Calm Calm - N/A   Scattered Clouds
2:53 AM 19.0 °F - 14.0 °F 81% 30.28 in 10.0 mi Calm Calm - N/A   Partly Cloudy
3:53 AM 18.0 °F - 12.9 °F 81% 30.29 in 9.0 mi Calm Calm - N/A   Overcast
4:53 AM 15.1 °F - 10.9 °F 84% 30.31 in 6.0 mi Calm Calm - N/A   Clear
5:53 AM 12.0 °F - 10.0 °F 92% 30.32 in 5.0 mi Calm Calm - N/A   Clear
6:53 AM 10.9 °F - 7.0 °F 84% 30.33 in 6.0 mi Calm Calm - N/A   Clear
7:53 AM 12.0 °F - 9.0 °F 88% 30.35 in 4.0 mi Calm Calm - N/A   Clear
8:53 AM 18.0 °F - 15.1 °F 88% 30.35 in 6.0 mi Calm Calm - N/A   Clear
9:53 AM 26.1 °F - 18.0 °F 71% 30.36 in 8.0 mi Calm Calm - N/A   Clear
10:53 AM 28.9 °F 22.8 °F 15.1 °F 56% 30.36 in 10.0 mi NW 5.8 mph - N/A   Clear
11:53 AM 30.0 °F 24.1 °F 16.0 °F 56% 30.33 in 10.0 mi WNW 5.8 mph - N/A   Clear
12:53 PM 32.0 °F 24.2 °F 16.0 °F 52% 30.30 in 10.0 mi West 9.2 mph - N/A   Clear
1:53 PM 32.0 °F 24.8 °F 17.1 °F 54% 30.29 in 10.0 mi West 8.1 mph - N/A   Clear
2:53 PM 32.0 °F 24.2 °F 15.1 °F 50% 30.29 in 10.0 mi West 9.2 mph - N/A   Clear
3:53 PM 32.0 °F 25.6 °F 15.1 °F 50% 30.28 in 10.0 mi West 6.9 mph - N/A   Unknown
4:53 PM 32.0 °F 26.4 °F 15.1 °F 50% 30.30 in 10.0 mi West 5.8 mph - N/A   Clear
5:53 PM 27.0 °F 21.6 °F 16.0 °F 63% 30.32 in 10.0 mi West 4.6 mph - N/A   Clear
6:53 PM 23.0 °F - 14.0 °F 68% 30.34 in 10.0 mi Calm Calm - N/A   Clear
7:53 PM 21.0 °F 16.2 °F 12.9 °F 71% 30.35 in 10.0 mi SSW 3.5 mph - N/A   Clear
8:53 PM 19.0 °F 12.3 °F 12.0 °F 74% 30.35 in 10.0 mi West 4.6 mph - N/A   Clear
9:53 PM 25.0 °F 20.7 °F 12.0 °F 58% 30.34 in 10.0 mi SSW 3.5 mph - N/A   Clear
10:53 PM 15.1 °F - 8.1 °F 74% 30.35 in 10.0 mi Calm Calm - N/A   Clear
11:53 PM 16.0 °F 10.4 °F 9.0 °F 74% 30.34 in 10.0 mi SE 3.5 mph - N/A   Clear